Погода в Балабаш-Баишеве

Россия / Чувашская Республика     55°04′08″N   47°15′45″E
темп.,
°C
ветер,
м/с
пор.,
м/с
влажн.,
%
обл.,
%
осадки,
мм/ч
давл.,
гПа
погр.,
м
8 мая, сб
сб800:00+7ссз3695100 3.0 1016412
03:00+7св4892100 5.7 1016382
06:00+7св1495100 0.3 1017278
09:00+8всв348958 0.4 1017386
12:00+13в327086 0.0 1017981
15:00+14юв346563 0.0 10151043
18:00+14в36755 0.0 1013487
21:00+12вюв4128026 0.0 1012346
9 мая, вс
вс900:00+9юв3586100 0.0 101282
03:00+10ююв3888100 0.0 1011153
06:00+12ююв41274100 0.0 1011369
09:00+16ю51256100 0.0 1011653
12:00+18ююв61155100 0.0 1011933
15:00+20ю61157100 0.3 10101600
18:00+17ююз51170100 1.5 1011495
21:00+11сз3796100 2.5 1014357
10 мая, пн
пн1000:00+9зсз3695100 0.0 1016304
03:00+8з3696100 0.2 1019322
06:00+7сз3694100 0.6 1020352
09:00+8ссз3586100 0.8 1023467
12:00+10с4681100 0.1 1024539
15:00+10с5879100 0.1 1025579
18:00+10с5882100 0.0 1026539
21:00+8ссв51191100 0.0 1027479
11 мая, вт
вт1100:00+7св41190100 0.0 1028370
03:00+6св4129482 0.0 1028334
06:00+7св41187100 0.0 1030371
09:00+12всв5770100 0.0 1030527
12:00+16всв5661100 0.0 1030768
15:00+18всв5658100 0.0 1029874
18:00+16всв3766100 0.0 1029493
21:00+12св25815 0.0 103099
12 мая, ср
ср1200:00+10всв3107645 0.0 1030206
03:00+9всв310785 0.0 1029201
06:00+12в411713 0.0 1030313
09:00+17в57579 0.0 1029482
12:00+20в565484 0.0 1029899
15:00+21в565182 0.0 10281090
18:00+18всв48595 0.0 1028402
21:00+13в3116933 0.0 1027212